[[{"header":{"parameterUnit":"m.s-1","parameterCategory":1,"la1":30.2991,"la2":30.254,"lo1":-89.0895,"lo2":-89.0444,"dy":0.0017,"dx":0.0017,"nx":28,"ny":28,"refTime":"2024-02-08T03:00:00:Z","depth":0,"parameterNumber":2,"parameterNumberName":"U-component_of_WINDS"},"data":[0,0,0,0,0,0,0,0,0,0,0,0,0,0,0,0,0,0,0,0,0,0,0,0,0,0,0,0,0,0,0,0,0,0,0,0,0,0,0,0,0,0,0,0,0,0,0,0,0,0,0,0,0,0,0,0,0,0,-1.9159,-1.916,0,-1.9242,-1.9243,-1.9244,-1.925,-1.9249,-1.9248,-1.9248,-1.9339,-1.9342,-1.9345,0,0,0,0,0,0,0,0,0,0,0,0,0,-1.9012,-1.9014,-1.9159,-1.916,-1.9161,-1.9242,-1.9243,-1.9245,-1.9251,-1.9249,-1.9248,-1.9247,-1.9338,-1.9342,-1.9346,0,0,0,0,0,0,0,0,0,0,0,0,0,-1.9083,-1.9015,-1.9159,-1.9174,-1.9176,-1.9242,-1.9244,-1.9245,-1.9251,-1.9249,-1.9248,-1.9247,-1.9337,-1.9341,-1.9346,-1.9405,0,0,-1.9361,-1.9364,0,0,0,0,0,0,0,0,-1.9079,-1.9089,-1.9171,-1.9173,-1.9175,-1.9234,-1.9225,-1.9299,-1.9251,-1.9223,-1.9248,-1.9246,-1.9306,-1.9313,-1.9332,-1.9409,-1.9413,-1.9362,-1.9365,-1.9367,-1.9368,0,0,0,0,0,0,0,-1.9074,-1.9085,-1.9192,-1.9172,-1.9175,-1.9178,-1.9187,-1.9239,-1.9271,-1.9225,-1.9226,-1.9235,-1.9307,-1.9327,-1.9334,-1.9415,-1.9362,-1.9366,-1.9369,-1.9371,-1.9545,-1.9547,0,0,0,0,0,0,-1.9066,-1.9081,-1.919,-1.9195,-1.9123,-1.9182,-1.9192,-1.9217,-1.9271,-1.9277,-1.9236,-1.9235,-1.9319,-1.9328,-1.9338,-1.9409,-1.9367,-1.9372,-1.9375,-1.9544,-1.9546,-1.9547,0,0,0,0,0,0,-1.9062,-1.9075,-1.9186,-1.9138,-1.9153,-1.9186,-1.9215,-1.9219,-1.924,-1.9279,-1.9285,-1.9251,-1.9319,-1.9331,-1.9388,-1.9413,-1.9374,-1.9378,-1.9542,-1.9544,-1.9547,-1.9554,0,0,0,0,0,0,-1.9058,-1.9074,-1.9095,-1.9138,-1.9155,-1.9233,-1.9216,-1.9222,-1.9248,-1.9247,-1.9294,-1.9301,-1.9319,-1.938,-1.9393,-1.9419,-1.9382,-1.954,-1.9543,-1.9546,-1.9552,-1.9556,-1.956,0,0,0,0,0,-1.9053,-1.9095,-1.9096,-1.9109,-1.9182,-1.9235,-1.9244,-1.9262,-1.9249,-1.9272,-1.9297,-1.9299,-1.9408,-1.9386,-1.94,-1.9428,-1.9538,-1.9542,-1.9546,-1.955,-1.9555,-1.956,0,0,0,0,0,0,-1.9056,-1.9101,-1.9103,-1.916,-1.9193,-1.9235,-1.9264,-1.9268,-1.9307,-1.9305,-1.9327,-1.9338,-1.9394,-1.9418,-1.9392,-1.9488,-1.9472,-1.9479,-1.947,-1.9476,-1.9481,-1.9473,-1.9386,0,0,0,0,0,-1.9063,-1.91,-1.9139,-1.9186,-1.9202,-1.923,-1.9254,-1.9265,-1.9301,-1.9315,-1.9345,-1.9382,-1.9425,-1.9452,-1.9494,-1.9556,-1.9566,-1.9582,-1.9586,-1.959,-1.9595,-1.963,-1.9637,-1.956,-1.956,-1.956,0,0,-1.9078,-1.9108,-1.913,-1.9187,-1.9214,-1.9253,-1.9242,-1.9285,-1.9315,-1.9323,-1.9377,-1.9401,-1.9444,-1.9504,-1.9532,-1.9525,-1.9619,-1.9595,-1.9597,-1.96,-1.9634,-1.9642,-1.9648,-1.9562,-1.9562,-1.9561,0,0,-1.9126,-1.9152,-1.9193,-1.922,-1.9261,-1.928,-1.929,-1.9332,-1.9347,-1.9402,-1.9409,-1.9447,-1.9519,-1.9549,-1.9574,-1.9634,-1.9638,-1.9648,-1.967,-1.9704,-1.971,-1.9715,-1.9736,-1.9744,-1.9653,-1.9653,-1.9653,0,-1.914,-1.9198,-1.9215,-1.9257,-1.9282,-1.929,-1.9333,-1.9359,-1.9412,-1.943,-1.9421,-1.9512,-1.9542,-1.9609,-1.9623,-1.9644,-1.9657,-1.9641,-1.9707,-1.9713,-1.9718,-1.9739,-1.9747,-1.9654,-1.9654,-1.9654,-1.9654,0,-1.9214,-1.9254,-1.9283,-1.9331,-1.936,-1.9402,-1.9427,-1.9455,-1.9464,-1.9484,-1.9541,-1.9577,-1.9626,-1.9643,-1.9653,-1.9712,-1.9706,-1.9702,-1.9686,-1.9726,-1.9746,-1.9754,-1.9655,-1.9655,-1.9655,-1.9654,0,0,-1.9264,-1.9321,-1.9331,-1.9353,-1.9399,-1.9431,-1.9475,-1.952,-1.9544,-1.9581,-1.9618,-1.968,-1.9677,-1.9705,-1.9719,-1.9749,-1.9794,-1.9742,-1.9743,-1.9749,-1.9861,-1.9862,-1.987,-1.9797,-1.9799,-1.98,-1.9857,0,-1.9316,-1.939,-1.9407,-1.9473,-1.951,-1.9519,-1.9557,-1.9591,-1.9611,-1.9648,-1.9672,-1.9715,-1.9708,-1.9725,-1.9755,-1.9782,-1.9816,-1.9778,-1.9833,-1.9835,-1.982,-1.9881,-1.9882,-1.9934,-1.9864,-1.9866,-1.9867,0,-1.9385,-1.9421,-1.9489,-1.953,-1.9547,-1.958,-1.9623,-1.9658,-1.9697,-1.971,-1.9742,-1.9753,-1.9801,-1.9784,-1.9851,-1.9824,-1.9849,-1.9865,-1.9868,-1.9872,-1.9852,-1.9886,-1.9951,-1.9958,-1.9879,-1.9878,-1.9877,0,-1.9414,-1.948,-1.9529,-1.9548,-1.9596,-1.962,-1.9642,-1.9679,-1.9706,-1.9745,-1.9762,-1.9807,-1.9832,-1.9868,-1.9891,-1.9877,-1.9956,-1.9941,-1.9969,-1.9969,-1.9984,-1.9983,-2.0053,-2.0002,-2.0002,-2.0002,-2.0002,0,-1.9469,-1.951,-1.9542,-1.9572,-1.9619,-1.964,-1.9686,-1.9709,-1.9742,-1.9778,-1.9791,-1.9825,-1.9854,-1.9893,-1.9913,-1.9965,-1.9977,-1.999,-1.9994,-1.9987,-1.9985,-2.0002,-1.9999,-2.0004,-2.0004,-2.0003,-2.0003,0,-1.9507,-1.953,-1.9584,-1.9626,-1.9637,-1.967,-1.9707,-1.9738,-1.9759,-1.9805,-1.9817,-1.9851,-1.9898,-1.9925,-1.9985,-1.9998,-2.0055,-2.0059,-2.0041,-2.0043,-2.0069,-2.0065,-2.0151,-2.0163,-2.0106,-2.0106,-2.0107,0,-1.954,-1.9571,-1.9616,-1.9639,-1.9661,-1.97,-1.9726,-1.9749,-1.9777,-1.9824,-1.9849,-1.9896,-1.9934,-2.0008,-2.004,-2.0086,-2.009,-2.0117,-2.0097,-2.0089,-2.0089,-2.0086,-2.0089,-2.012,-2.012,-2.0121,-2.0121,0,-1.9595,-1.9605,-1.9641,-1.9682,-1.9712,-1.9746,-1.978,-1.98,-1.9829,-1.9859,-1.9906,-1.9935,-1.9995,-2.0042,-2.009,-2.0116,-2.0124,-2.0127,-2.0136,-2.0129,-2.0116,-2.0122,-2.0049,-2.0125,-2.0124,-2.0124,-2.0124,-2.0124,-1.9631,-1.9659,-1.9694,-1.9735,-1.9762,-1.9793,-1.9824,-1.9849,-1.9887,-1.9935,-1.9948,-1.9996,-2.0036,-2.0102,-2.0129,-2.0169,-2.0164,-2.0177,-2.018,-2.0183,-2.0183,-2.0111,-2.0178,-2.0178,-2.0178,-2.0178,-2.0178,0,-1.9685,-1.9708,-1.9745,-1.9791,-1.9823,-1.9826,-1.9864,-1.9891,-1.9933,-1.9969,-2.0006,-2.006,-2.0105,-2.0141,-2.0188,-2.0213,-2.0218,-2.0225,-2.0222,-2.0228,-2.0184,-2.0171,-2.022,-2.022,-2.022,-2.022,-2.022,-2.022,-1.9717,-1.9764,-1.9779,-1.9841,-1.9865,-1.991,-1.9932,-1.9961,-1.9989,-2.0048,-2.0085,-2.0107,-2.0143,-2.0193,-2.0236,-2.0245,-2.0262,-2.0268,-2.0278,-2.0236,-2.0231,-2.0227,-2.0214,-2.0271,-2.0271,-2.0318,-2.0318,-2.0319]},{"header":{"parameterUnit":"m.s-1","parameterCategory":1,"la1":30.2991,"la2":30.254,"lo1":-89.0895,"lo2":-89.0444,"dy":0.0017,"dx":0.0017,"nx":28,"ny":28,"refTime":"2024-02-08T03:00:00:Z","depth":0,"parameterNumber":3,"parameterNumberName":"V-component_of_WINDS"},"data":[0,0,0,0,0,0,0,0,0,0,0,0,0,0,0,0,0,0,0,0,0,0,0,0,0,0,0,0,0,0,0,0,0,0,0,0,0,0,0,0,0,0,0,0,0,0,0,0,0,0,0,0,0,0,0,0,0,0,1.6813,1.6816,0,1.7077,1.708,1.7083,1.7225,1.7226,1.7226,1.7226,1.7493,1.75,1.7507,0,0,0,0,0,0,0,0,0,0,0,0,0,1.6427,1.6434,1.6813,1.6816,1.6819,1.7077,1.7081,1.7084,1.7225,1.7226,1.7226,1.7226,1.7491,1.7499,1.7507,0,0,0,0,0,0,0,0,0,0,0,0,0,1.6633,1.6436,1.6812,1.6921,1.6933,1.7076,1.7081,1.7085,1.7225,1.7226,1.7226,1.7227,1.7488,1.7498,1.7508,1.7562,0,0,1.754,1.7544,0,0,0,0,0,0,0,0,1.6621,1.6647,1.6902,1.6914,1.6928,1.7119,1.7043,1.7245,1.7225,1.7114,1.7226,1.7227,1.7368,1.7388,1.7437,1.7575,1.7586,1.7541,1.7547,1.7551,1.7554,0,0,0,0,0,0,0,1.6607,1.6637,1.6917,1.6905,1.6921,1.6956,1.6985,1.7082,1.7235,1.7124,1.7135,1.7164,1.7375,1.7427,1.7444,1.759,1.754,1.7549,1.7556,1.756,1.7787,1.7787,0,0,0,0,0,0,1.6576,1.6624,1.6909,1.6925,1.6773,1.6962,1.6996,1.7057,1.7235,1.7262,1.7164,1.717,1.7409,1.7432,1.7454,1.7531,1.7551,1.7561,1.7567,1.7787,1.7787,1.7787,0,0,0,0,0,0,1.6567,1.66,1.6898,1.6778,1.6818,1.6968,1.7036,1.7062,1.7114,1.7265,1.7292,1.7188,1.741,1.744,1.7535,1.7542,1.7565,1.7575,1.7787,1.7787,1.7787,1.7683,0,0,0,0,0,0,1.6555,1.6596,1.6618,1.6777,1.6824,1.6976,1.7037,1.7067,1.7131,1.7142,1.7295,1.7321,1.7413,1.7519,1.7545,1.7556,1.7583,1.7788,1.7787,1.7787,1.7686,1.7679,1.7673,0,0,0,0,0,1.6541,1.6577,1.6619,1.6652,1.6856,1.6976,1.7003,1.7109,1.7131,1.7155,1.7252,1.7316,1.7536,1.7527,1.7558,1.7573,1.7788,1.7787,1.7787,1.7689,1.7681,1.7673,0,0,0,0,0,0,1.6414,1.66,1.6648,1.6737,1.684,1.6999,1.7033,1.7096,1.7193,1.7199,1.7325,1.7359,1.7442,1.7517,1.7504,1.7635,1.7669,1.7674,1.7584,1.7577,1.757,1.7551,1.7591,0,0,0,0,0,1.6397,1.6479,1.6637,1.67,1.6749,1.6882,1.6938,1.7011,1.7122,1.7165,1.727,1.7374,1.7467,1.7525,1.7619,1.7697,1.7733,1.7722,1.7715,1.7709,1.7713,1.7761,1.7759,1.7786,1.7786,1.7786,0,0,1.6361,1.6473,1.6518,1.6678,1.6766,1.6848,1.6917,1.7001,1.7064,1.7178,1.7276,1.7355,1.7479,1.7567,1.761,1.7631,1.7713,1.7709,1.7702,1.7711,1.7761,1.7758,1.7756,1.7786,1.7786,1.7786,0,0,1.634,1.6432,1.6496,1.6583,1.6716,1.6804,1.6819,1.697,1.7027,1.7127,1.7215,1.729,1.7447,1.7533,1.7597,1.7607,1.767,1.7634,1.76,1.7645,1.7643,1.7642,1.7647,1.7648,1.7637,1.7637,1.7637,0,1.6279,1.6408,1.6521,1.6601,1.6669,1.6777,1.6843,1.6921,1.7076,1.7121,1.7142,1.7343,1.7434,1.7543,1.7546,1.7593,1.7615,1.7618,1.7634,1.7634,1.7635,1.7642,1.7643,1.7632,1.7632,1.7633,1.7633,0,1.6328,1.6416,1.6451,1.6601,1.6673,1.6745,1.6868,1.6927,1.6993,1.7078,1.7178,1.7291,1.7411,1.7441,1.7506,1.756,1.757,1.761,1.7648,1.7625,1.7634,1.7637,1.7625,1.7626,1.7628,1.7629,0,0,1.6236,1.6447,1.6459,1.6529,1.6683,1.6753,1.6829,1.6947,1.6996,1.7098,1.7167,1.7297,1.7336,1.7409,1.7484,1.7523,1.7526,1.756,1.7565,1.7552,1.7595,1.7565,1.7566,1.7568,1.7569,1.7569,1.7585,0,1.6239,1.6384,1.6487,1.6591,1.6674,1.6777,1.6844,1.6945,1.7026,1.7108,1.7197,1.7288,1.7332,1.7377,1.7421,1.7517,1.7537,1.7517,1.7633,1.7635,1.7601,1.7571,1.7539,1.7549,1.7589,1.759,1.759,0,1.6262,1.6364,1.6476,1.6623,1.6662,1.672,1.6837,1.6913,1.703,1.7086,1.7167,1.7244,1.7329,1.7356,1.7474,1.7458,1.7511,1.7565,1.7568,1.7585,1.7613,1.7589,1.7554,1.7556,1.7596,1.7596,1.7595,0,1.6186,1.6351,1.6441,1.6497,1.6669,1.6708,1.6781,1.6898,1.6963,1.7064,1.7108,1.7216,1.7276,1.7358,1.7462,1.7472,1.7571,1.7606,1.762,1.7618,1.7639,1.7636,1.7615,1.7668,1.7668,1.7668,1.7668,0,1.618,1.6245,1.641,1.6465,1.6541,1.6658,1.673,1.6812,1.6915,1.6988,1.7082,1.7147,1.728,1.7362,1.7443,1.753,1.7555,1.7603,1.7625,1.7597,1.7591,1.7635,1.7638,1.7668,1.7668,1.7668,1.7668,0,1.611,1.6222,1.6327,1.6482,1.6522,1.6571,1.6704,1.6761,1.6846,1.6937,1.6965,1.7099,1.72,1.7312,1.7449,1.7504,1.7586,1.7615,1.7548,1.756,1.7569,1.7568,1.7577,1.7585,1.7629,1.7629,1.7628,0,1.61,1.6153,1.6314,1.637,1.6441,1.653,1.6597,1.6713,1.6779,1.6915,1.6956,1.7064,1.7157,1.7313,1.7423,1.7528,1.7562,1.7558,1.7579,1.7549,1.7565,1.7562,1.7568,1.7553,1.7552,1.7551,1.755,0,1.6071,1.6124,1.6217,1.633,1.6408,1.6502,1.6599,1.6639,1.6775,1.6844,1.6949,1.7021,1.7162,1.7269,1.7388,1.7462,1.7529,1.7542,1.7552,1.7525,1.7484,1.7509,1.7534,1.7542,1.7543,1.7544,1.7544,1.7544,1.6033,1.6086,1.6207,1.6308,1.6394,1.6483,1.6545,1.6639,1.6729,1.6855,1.6917,1.7022,1.7137,1.7304,1.7376,1.7459,1.7481,1.7493,1.7497,1.7499,1.7493,1.7469,1.7481,1.7481,1.7482,1.7482,1.7482,0,1.6011,1.6094,1.6186,1.6321,1.64,1.6456,1.6567,1.6629,1.6721,1.6823,1.6913,1.7034,1.7137,1.7254,1.7365,1.7409,1.7442,1.7434,1.7434,1.745,1.7466,1.7448,1.7406,1.7406,1.7406,1.7406,1.7406,1.7406,1.6009,1.6102,1.6169,1.6305,1.6388,1.6493,1.6551,1.6634,1.6717,1.6848,1.6935,1.7011,1.7119,1.7239,1.7336,1.7368,1.7405,1.7388,1.7429,1.7442,1.7449,1.7455,1.7439,1.7395,1.7395,1.7406,1.7406,1.7406]}]]